CW8081 Thessaloniki GR current weather conditions

sailwx.info

Last reported at 2015-May-08 04:33 UTC.
Time now 2015-Jul-29 04:54 UTC

Location: N 40°34' E 022°58'.
View on Google Maps.

See reports from other nearby stations

  
Tides and Currents Weather Stations Pressure Air Temp Water Temp Dewpoint Dewpoint Depression Visibility Wind Speed Wind Dir Waves Ship Positions
date/time (UTC)wind fromknots sea level pressurealtimeterstation pressurevisibilityair tempwater tempwave heightnotes
2015-Jul-29 03:41 328 24.4
2015-Jul-29 03:31 329 25.0
2015-Jul-29 03:11 329 25.6
2015-Jul-29 03:01 329 25.6
2015-Jul-29 02:41 329 26.1
2015-Jul-29 02:31 329 26.1
2015-Jul-29 02:11 329 26.1
2015-Jul-29 02:01 329 26.1
2015-Jul-29 01:41 329 26.7
2015-Jul-29 01:31 329 26.7
2015-Jul-29 01:11 329 26.7
2015-Jul-29 01:01 329 27.2
2015-Jul-29 00:41 315 27.2
2015-Jul-29 00:31 315 27.2
2015-Jul-29 00:11 181 27.2
2015-Jul-29 00:01 181 27.2
2015-Jul-28 23:41 176 26.7
2015-Jul-28 23:31 176 26.7
2015-Jul-28 23:11 176 26.7
2015-Jul-28 23:01 176 26.7
2015-Jul-28 22:41 176 27.2
2015-Jul-28 22:31 176 27.2
2015-Jul-28 22:11 176 27.2
2015-Jul-28 22:01 176 27.2
2015-Jul-28 21:41 176 27.8
2015-Jul-28 21:31 176 27.8
2015-Jul-28 21:11 176 27.8
2015-Jul-28 21:01 176 27.8
2015-Jul-28 20:41 176 28.3
2015-Jul-28 20:31 176 28.3
2015-Jul-28 20:11 176 28.3
2015-Jul-28 20:01 176 28.3
2015-Jul-28 19:41 176 28.3
2015-Jul-28 19:31 176 28.9
2015-Jul-28 19:11 176 28.9
2015-Jul-28 19:01 176 28.9
2015-Jul-28 18:41 198 29.4
2015-Jul-28 18:31 198 29.4
2015-Jul-28 18:11 198 30.0
2015-Jul-28 18:01 200 30.0
2015-Jul-28 17:41 212 2 gusting 5 30.6
2015-Jul-28 17:31 212 1 gusting 5 31.1
2015-Jul-28 17:11 194 31.7
2015-Jul-28 17:01 181 31.7
2015-Jul-28 16:41 149 5 gusting 10 32.8
2015-Jul-28 16:31 211 6 gusting 13 32.8
2015-Jul-28 16:11 210 5 gusting 10 33.3
2015-Jul-28 16:01 199 4 gusting 12 33.3
2015-Jul-28 15:41 215 4 gusting 12 33.9
2015-Jul-28 15:31 196 4 gusting 13 34.4
2015-Jul-28 15:11 192 5 gusting 11 35.0
2015-Jul-28 15:01 204 4 gusting 13 35.0
2015-Jul-28 14:41 195 6 gusting 12 35.6
2015-Jul-28 14:31 197 4 gusting 12 35.6
2015-Jul-28 14:11 215 6 gusting 11 35.0
2015-Jul-28 14:01 238 2 gusting 10 35.6
2015-Jul-28 13:41 218 35.6
2015-Jul-28 13:31 258 2 gusting 8 35.6
2015-Jul-28 13:11 248 3 gusting 6 35.6
2015-Jul-28 13:01 246 0 gusting 7 35.6
2015-Jul-28 12:41 261 35.6
2015-Jul-28 12:31 216 35.6
2015-Jul-28 12:11 238 35.6
2015-Jul-28 12:01 247 35.6
2015-Jul-28 11:41 243 0 gusting 6 35.0
2015-Jul-28 11:31 246 2 gusting 6 35.0
2015-Jul-28 11:11 248 34.4
2015-Jul-28 11:01 255 34.4
2015-Jul-28 10:41 241 33.3
2015-Jul-28 10:31 240 4 gusting 10 32.8
2015-Jul-28 10:11 215 5 gusting 10 32.8
2015-Jul-28 10:01 220 4 gusting 7 32.8
2015-Jul-28 09:41 206 32.2
2015-Jul-28 09:31 249 31.7
2015-Jul-28 09:11 219 5 gusting 7 31.7
2015-Jul-28 09:01 232 6 gusting 10 31.1
2015-Jul-28 08:41 215 2 gusting 7 30.6
2015-Jul-28 08:31 217 30.0
2015-Jul-28 08:11 214 29.4
2015-Jul-28 08:01 208 3 gusting 7 29.4
2015-Jul-28 07:41 208 0 gusting 6 28.9
2015-Jul-28 07:31 219 1 gusting 7 28.9
2015-Jul-28 07:11 202 4 gusting 6 28.9
2015-Jul-28 07:01 251 28.9
2015-Jul-28 06:41 207 28.9
2015-Jul-28 06:31 204 28.3
2015-Jul-28 06:11 204 27.8
2015-Jul-28 06:01 184 27.8
2015-Jul-28 05:41 167 27.2
2015-Jul-28 05:31 167 26.7
2015-Jul-28 05:11 158 26.1
2015-Jul-28 05:01 158 26.1
2015-Jul-28 04:41 158 25.6
2015-Jul-28 04:31 158 25.6
2015-Jul-28 04:11 158 25.0
2015-Jul-28 04:01 158 25.0
2015-Jul-28 03:41 158 24.4
2015-Jul-28 03:31 158 24.4
2015-Jul-28 03:11 158 24.4
2015-Jul-28 03:01 158 24.4
2015-Jul-28 02:41 158 25.0
2015-Jul-28 02:31 158 25.0
2015-Jul-28 02:11 158 25.0
2015-Jul-28 02:01 158 25.0
2015-Jul-28 01:41 158 25.6
2015-Jul-28 01:31 158 25.6
2015-Jul-28 01:11 158 26.1
2015-Jul-28 01:01 158 26.1
2015-Jul-28 00:41 158 26.1
2015-Jul-28 00:31 158 26.1
2015-Jul-28 00:11 158 26.7
2015-Jul-28 00:01 158 26.7
2015-Jul-27 23:41 158 26.7
2015-Jul-27 23:31 158 26.7
2015-Jul-27 23:11 158 27.2
2015-Jul-27 23:01 158 27.2
2015-Jul-27 22:41 158 27.2
2015-Jul-27 22:31 158 27.8
2015-Jul-27 22:11 158 27.8
2015-Jul-27 22:01 158 27.8
2015-Jul-27 21:41 158 27.8
2015-Jul-27 21:31 158 27.8
2015-Jul-27 21:11 158 28.3
2015-Jul-27 21:01 158 28.3
2015-Jul-27 20:41 158 28.3
2015-Jul-27 20:31 158 28.3
2015-Jul-27 20:11 158 28.9
2015-Jul-27 20:01 158 28.9
2015-Jul-27 19:41 158 28.9
2015-Jul-27 19:31 158 28.9
2015-Jul-27 19:11 162 28.9
2015-Jul-27 19:01 164 28.9
2015-Jul-27 18:41 164 28.9
2015-Jul-27 18:31 192 28.9
2015-Jul-27 18:11 205 29.4
2015-Jul-27 18:01 212 29.4
2015-Jul-27 17:41 205 5 gusting 6 30.0
2015-Jul-27 17:31 211 4 gusting 6 30.0
2015-Jul-27 17:11 215 5 gusting 8 31.1
2015-Jul-27 17:01 205 31.7
2015-Jul-27 16:41 190 5 gusting 10 31.7
2015-Jul-27 16:31 190 0 gusting 13 32.2
2015-Jul-27 16:11 200 5 gusting 12 32.8
2015-Jul-27 16:01 209 5 gusting 13 33.3
2015-Jul-27 15:41 182 7 gusting 12 33.9
2015-Jul-27 15:31 167 6 gusting 13 35.0
2015-Jul-27 15:11 188 1 gusting 11 35.6
2015-Jul-27 15:01 196 5 gusting 10 35.6
2015-Jul-27 14:41 217 1 gusting 10 35.6
2015-Jul-27 14:31 195 6 gusting 10 35.6
2015-Jul-27 14:11 216 6 gusting 10 35.6
2015-Jul-27 14:01 227 35.0
2015-Jul-27 13:41 250 1 gusting 7 35.0
2015-Jul-27 13:31 265 35.0
2015-Jul-27 13:11 268 1 gusting 7 35.0
2015-Jul-27 13:01 242 1 gusting 7 35.0
2015-Jul-27 12:41 234 1 gusting 7 34.4
2015-Jul-27 12:31 267 35.0
2015-Jul-27 12:11 267 34.4
2015-Jul-27 12:01 268 34.4
2015-Jul-27 11:41 249 1 gusting 7 33.9
2015-Jul-27 11:31 273 34.4
2015-Jul-27 11:11 276 33.9
2015-Jul-27 11:01 273 33.9
2015-Jul-27 10:41 265 33.3
2015-Jul-27 10:31 265 33.3
2015-Jul-27 10:11 191 32.2
2015-Jul-27 10:01 251 2 gusting 7 31.7
2015-Jul-27 09:41 237 0 gusting 6 31.7
2015-Jul-27 09:31 250 3 gusting 8 31.7
2015-Jul-27 09:11 219 31.7
2015-Jul-27 09:01 218 31.7
2015-Jul-27 08:41 235 31.7
2015-Jul-27 08:31 247 1 gusting 6 31.7
2015-Jul-27 08:11 223 30.6
2015-Jul-27 08:01 240 30.6
2015-Jul-27 07:41 224 0 gusting 6 31.1
2015-Jul-27 07:31 223 0 gusting 6 31.1
2015-Jul-27 07:11 159 30.6
2015-Jul-27 07:01 157 30.0
2015-Jul-27 06:41 174 28.9
2015-Jul-27 06:31 174 28.3
2015-Jul-27 06:11 174 27.2
2015-Jul-27 06:01 157 27.2
2015-Jul-27 05:41 155 26.7
2015-Jul-27 05:31 153 26.1
2015-Jul-27 05:11 142 25.6
2015-Jul-27 05:01 142 25.0
2015-Jul-27 04:41 142 24.4
2015-Jul-27 04:31 142 23.9
2015-Jul-27 04:11 142 23.9
2015-Jul-27 04:01 142 23.9